Location: Byhalia Creek
(34.8270°N, 89.8040°W)
Time: 19:27:20
(UTC+00:00)

DNEPR-1 R/B - Pass Details

Date: 22 April 2026
Orbit: 581 x 1332 km, 64.6° (Epoch: 21 May)

Event Time Altitude Azimuth Distance (km) Brightness Sun altitude
Rises 09:47:44 0° 328° (NNW) 3,335 7.3 -18.0°
Reaches altitude 10° 09:49:58 10° 327° (NNW) 2,499 6.6 -17.6°
Maximum altitude 09:55:50 77° 242° (WSW) 1,017 4.4 -16.6°
Drops below altitude 10° 10:02:59 10° 158° (SSE) 3,024 7.0 -15.3°
Sets 10:05:55 0° 157° (SSE) 4,080 7.7 -14.8°
